Ephrata, WA

6:00 AM PST on February 25, 2018 (GMT -0800)
Ephrata Municipal

Weather History for KEPH - January, 2012

Change the Weather History Date:

Monday, January 2, 2012

  Actual Average Record
Temperature  
Mean Temperature 31 °F 27 °F  
Max Temperature 39 °F 33 °F 49 °F (1954)
Min Temperature 22 °F 21 °F -10 °F (1993)
Degree Days  
Heating Degree Days 34 38  
Month to date heating degree days 63 77  
Since 1 July heating degree days 2539 2663  
Cooling Degree Days 0 0  
Month to date cooling degree days 0 0  
Year to date cooling degree days 0 0  
Moisture  
Dew Point 24 °F    
Average Humidity 76    
Maximum Humidity 92    
Minimum Humidity 59    
Precipitation  
Precipitation 0.00 in 0.04 in 0.45 in (1953)
Month to date precipitation 0.00 0.07  
Year to date precipitation 0.00 0.07  
Sea Level Pressure  
Sea Level Pressure 30.21 in    
Wind  
Wind Speed 5 mph (NNW)    
Max Wind Speed 13 mph    
Max Gust Speed 15 mph    
Visibility 10 miles    
Events      
T = Trace of Precipitation, MM = Missing Value Source: NWS Daily Summary

Daily Weather History Graph

Daily Weather History Graph

Search for Another Location

Airport or City:

Trip Planner

Search our weather history database for the weather conditions in past years. The results will help you decide how hot, cold, wet, or windy it might be!

Date:

Astronomy

Jan. 02, 2012 Rise Set
Actual Time 7:45 AM PST 4:19 PM PST
Civil Twilight 7:09 AM PST 4:54 PM PST
Nautical Twilight 6:30 AM PST 5:33 PM PST
Astronomical Twilight 5:53 AM PST 6:10 PM PST
Moon 11:47 AM PST (1/2) 1:31 AM PST (1/2)
Length of Visible Light 9h 44m
Length of Day
8h 33m
Waxing Gibbous, 65% of the Moon is Illuminated
Jan 2
Waxing Gibbous
Jan 8
Full
Jan 16
Last Quarter
Jan 22
New
Jan 30
First Quarter

Hourly Weather History & Observations

Time (PST) Temp. Windchill Dew Point Humidity Pressure Visibility Wind Dir Wind Speed Gust Speed Precip Events Conditions
12:53 AM 32.0 °F 24.8 °F 21.9 °F 66% 30.36 in 10.0 mi NNW 8.1 mph - N/A   Clear
1:53 AM 30.0 °F 23.2 °F 21.9 °F 72% 30.35 in 10.0 mi North 6.9 mph - N/A   Clear
2:53 AM 28.9 °F 21.9 °F 21.9 °F 75% 30.34 in 10.0 mi North 6.9 mph - N/A   Clear
3:53 AM 28.0 °F 20.8 °F 23.0 °F 81% 30.32 in 10.0 mi North 6.9 mph - N/A   Clear
5:53 AM 26.1 °F 20.5 °F 21.0 °F 81% 30.28 in 10.0 mi North 4.6 mph - N/A   Clear
7:53 AM 26.1 °F 19.4 °F 21.0 °F 81% 30.26 in 10.0 mi North 5.8 mph - N/A   Clear
8:53 AM 30.9 °F 23.5 °F 23.0 °F 72% 30.24 in 10.0 mi North 8.1 mph - N/A   Clear
10:53 AM 37.0 °F 34.5 °F 25.0 °F 62% 30.20 in 10.0 mi North 3.5 mph - N/A   Clear
11:53 AM 36.0 °F 30.3 °F 25.0 °F 64% 30.14 in 10.0 mi North 6.9 mph - N/A   Partly Cloudy
12:53 PM 37.0 °F 32.4 °F 26.1 °F 65% 30.11 in 10.0 mi North 5.8 mph - N/A   Clear
1:53 PM 37.9 °F - 26.1 °F 62% 30.11 in 10.0 mi Calm Calm - N/A   Clear
2:53 PM 37.9 °F 35.5 °F 26.1 °F 62% 30.10 in 10.0 mi SSW 3.5 mph - N/A   Clear
3:53 PM 34.0 °F 29.8 °F 26.1 °F 73% 30.12 in 10.0 mi South 4.6 mph - N/A   Clear
4:53 PM 30.9 °F 25.2 °F 26.1 °F 82% 30.11 in 10.0 mi South 5.8 mph - N/A   Clear
5:53 PM 32.0 °F 24.8 °F 26.1 °F 79% 30.13 in 10.0 mi South 8.1 mph - N/A   Partly Cloudy
6:53 PM 28.9 °F 22.8 °F 26.1 °F 89% 30.14 in 10.0 mi South 5.8 mph - N/A   Partly Cloudy
7:53 PM 27.0 °F - 25.0 °F 92% 30.17 in 10.0 mi Calm Calm - N/A   Partly Cloudy
8:53 PM 28.0 °F - 26.1 °F 92% 30.18 in 10.0 mi Calm Calm - N/A   Mostly Cloudy
9:53 PM 26.1 °F - 25.0 °F 96% 30.21 in 10.0 mi Calm Calm - N/A   Clear
10:53 PM 24.1 °F - 23.0 °F 96% 30.23 in 10.0 mi Calm Calm - N/A   Clear
11:53 PM 23.0 °F 15.8 °F 21.0 °F 92% 30.23 in 10.0 mi North 5.8 mph - N/A   Clear